This is the latest recevied weather packets stored in our database for station/object DL1GHN-6. If no packets are shown the sender has not sent any weather packets the latest 10 day(s).
| Time | Temp. | Humidity | Pressure | Rain* | Wind** | Luminosity | Snow |
|---|---|---|---|---|---|---|---|
| 1777789221 | 14.44° C | 77% | 1015.3 hPa | 0 mm | - | 42 W/m² | - |
| 1777788921 | 14.44° C | 78% | 1015.3 hPa | 0 mm | - | 53 W/m² | - |
| 1777788621 | 14.44° C | 77% | 1015.2 hPa | 0 mm | - | 47 W/m² | - |
| 1777788321 | 14.44° C | 77% | 1015.2 hPa | 0 mm | - | 51 W/m² | - |
| 1777788021 | 14.44° C | 76% | 1015.2 hPa | 0 mm | - | 47 W/m² | - |
| 1777787721 | 14.44° C | 76% | 1015.1 hPa | 0 mm | - | 44 W/m² | - |
| 1777787422 | 14.44° C | 76% | 1015.1 hPa | 0 mm | - | 32 W/m² | - |
| 1777787121 | 13.89° C | 76% | 1015.1 hPa | 0 mm | - | 25 W/m² | - |
| 1777786822 | 13.89° C | 76% | 1015.1 hPa | 0 mm | - | 18 W/m² | - |
| 1777786522 | 13.89° C | 77% | 1015.1 hPa | 0 mm | - | 18 W/m² | - |
| 1777786221 | 13.89° C | 77% | 1015 hPa | 0 mm | - | 25 W/m² | - |
| 1777785921 | 13.89° C | 77% | 1014.8 hPa | 0 mm | - | 26 W/m² | - |
| 1777785621 | 13.89° C | 77% | 1014.8 hPa | 0 mm | - | 26 W/m² | - |
| 1777785320 | 13.89° C | 77% | 1014.7 hPa | 0 mm | - | 28 W/m² | - |
| 1777785021 | 13.89° C | 77% | 1014.7 hPa | 0 mm | - | 25 W/m² | - |
| 1777784721 | 13.89° C | 75% | 1014.7 hPa | 0 mm | - | 19 W/m² | - |
| 1777784421 | 14.44° C | 75% | 1014.9 hPa | 0 mm | - | 16 W/m² | - |
| 1777784120 | 14.44° C | 75% | 1014.9 hPa | 0 mm | - | 14 W/m² | - |
| 1777783821 | 14.44° C | 74% | 1014.9 hPa | 0 mm | - | 14 W/m² | - |
| 1777783522 | 14.44° C | 74% | 1014.9 hPa | 0 mm | - | 16 W/m² | - |
| 1777783221 | 14.44° C | 74% | 1014.8 hPa | 0 mm | - | 18 W/m² | - |
| 1777782921 | 14.44° C | 74% | 1014.9 hPa | 0 mm | - | 16 W/m² | - |
| 1777782621 | 14.44° C | 74% | 1014.9 hPa | 0 mm | - | 11 W/m² | - |
| 1777782321 | 14.44° C | 74% | 1014.9 hPa | 0 mm | - | 7 W/m² | - |
| 1777782022 | 15° C | 74% | 1014.9 hPa | 0 mm | - | 5 W/m² | - |
* Rain latest hour (hover to see other rain measurements)
** Current wind speed in m/s (hover to see current wind gust speed)